TimeMST,TemperatureF,Dew PointF,Humidity,Sea Level PressureIn,VisibilityMPH,Wind Direction,Wind SpeedMPH,Gust SpeedMPH,PrecipitationIn,Events,Conditions,WindDirDegrees,DateUTC
12:56 AM,39.0,30.0,70,29.60,10.0,SW,5.8,-,N/A,,Clear,220,2012-11-18 07:56:00
1:56 AM,39.0,30.9,73,29.56,10.0,South,11.5,21.9,N/A,,Clear,180,2012-11-18 08:56:00
2:56 AM,39.0,30.9,73,29.56,10.0,SSW,11.5,-,N/A,,Clear,200,2012-11-18 09:56:00
3:56 AM,39.0,30.9,73,29.54,10.0,South,10.4,-,N/A,,Clear,190,2012-11-18 10:56:00
4:56 AM,37.0,30.9,79,29.52,10.0,SSW,8.1,-,N/A,,Clear,210,2012-11-18 11:56:00
5:56 AM,39.9,33.1,77,29.58,10.0,SW,25.3,41.4,0.00,,Overcast,230,2012-11-18 12:56:00
6:56 AM,39.9,28.9,65,29.62,10.0,West,26.5,36.8,N/A,,Mostly Cloudy,260,2012-11-18 13:56:00
7:56 AM,37.9,27.0,65,29.67,10.0,WSW,28.8,36.8,N/A,,Partly Cloudy,240,2012-11-18 14:56:00
8:56 AM,39.9,23.0,51,29.70,10.0,WSW,25.3,36.8,N/A,,Clear,240,2012-11-18 15:56:00
9:56 AM,41.0,24.1,51,29.68,10.0,WSW,36.8,44.9,N/A,,Clear,240,2012-11-18 16:56:00
10:56 AM,39.9,21.9,49,29.79,10.0,WSW,25.3,36.8,N/A,,Clear,250,2012-11-18 17:56:00
11:56 AM,43.0,21.0,42,29.80,10.0,WSW,32.2,41.4,N/A,,Clear,240,2012-11-18 18:56:00
12:56 PM,42.1,21.0,43,29.83,10.0,WSW,29.9,40.3,N/A,,Clear,240,2012-11-18 19:56:00
1:56 PM,42.1,21.0,43,29.85,10.0,WSW,27.6,34.5,N/A,,Clear,240,2012-11-18 20:56:00
2:56 PM,39.9,21.0,47,29.86,10.0,WSW,25.3,34.5,N/A,,Clear,240,2012-11-18 21:56:00
3:56 PM,39.9,19.9,45,29.89,10.0,SW,18.4,25.3,N/A,,Clear,230,2012-11-18 22:56:00
4:56 PM,37.0,21.9,54,29.93,10.0,SW,18.4,27.6,N/A,,Clear,220,2012-11-18 23:56:00
5:56 PM,35.1,21.9,59,29.92,10.0,SW,19.6,-,N/A,,Clear,220,2012-11-19 00:56:00
6:56 PM,32.0,21.9,66,29.95,10.0,SW,12.7,-,N/A,,Clear,230,2012-11-19 01:56:00
7:56 PM,32.0,21.9,66,29.96,10.0,SW,11.5,-,N/A,,Clear,230,2012-11-19 02:56:00
8:56 PM,32.0,21.9,66,29.94,10.0,SW,15.0,-,N/A,,Clear,220,2012-11-19 03:56:00
9:56 PM,34.0,21.0,59,29.94,10.0,WSW,4.6,-,N/A,,Clear,240,2012-11-19 04:56:00
10:56 PM,36.0,19.0,50,29.93,10.0,SW,15.0,-,N/A,,Clear,230,2012-11-19 05:56:00
11:56 PM,32.0,19.0,59,29.93,10.0,South,8.1,-,N/A,,Clear,170,2012-11-19 06:56:00